Home   Weather   Braga   Past weeks

Flag for Portugal Past Weather in Braga, Portugal — Yesterday and Last 2 Weeks

Now
53 °F

Cool.


Feels Like: 51 °F
Forecast: N/A
Wind: 6 mph from East

Location: Porto / Pedras Rubras

Current Time: Dec 8, 2016 at 10:22:32 pm

Latest Report: Dec 8, 2016 at 9:00 pm


Visibility: N/A

Pressure: 30.40 "Hg

Humidity: 62%

Dew Point: 40 °F

Location of BragaLocation

Past Weather in Braga — Graph

°F

Braga Temperature Yesterday

Maximum temperature yesterday: 64 °F (at 3:00 pm)
Minimum temperature yesterday: 53 °F (at 6:00 am)
Average temperature yesterday: 58 °F

High & Low Weather Summary for the Past Weeks

 TemperatureHumidityPressure
High69 °F (Dec 4, 2:00 pm)90% (Nov 24, 8:00 pm)30.41 "Hg (Nov 24, 8:00 pm)
Low38 °F (Nov 24, 4:00 am)49% (Dec 1, 12:00 pm)29.50 "Hg (Nov 24, 8:00 pm)
Average55 °F69%29.95 "Hg
* Reported Nov 23 9:00 pm — Dec 8 9:00 pm, Braga, Weather by CustomWeather, © 2016

Note: Actual official high and low records may vary slightly from our data, if they occured in-between our weather recording intervals... More about our weather records

Advertising

Braga Weather History for the Previous 24 Hours

Scroll right to see more
 ConditionsComfort  
Time TempWeatherWind HumidityBarometerVisibility
9:00 pm
Thu, Dec 8
53 °FCool.6 mph62%30.40 "HgN/A
7:00 pm54 °FCool.5 mph61%30.38 "HgN/A
6:00 pm56 °FRefreshingly cool.5 mph60%30.37 "HgN/A
3:00 pm62 °FRefreshingly cool.3 mph53%30.34 "HgN/A
2:00 pm62 °FRefreshingly cool.5 mph50%30.34 "HgN/A
1:00 pm61 °FRefreshingly cool.5 mph53%30.35 "HgN/A
11:00 am59 °FRefreshingly cool.5 mph60%30.40 "HgN/A
10:00 am54 °FCool.5 mph69%30.41 "HgN/A
9:00 am53 °FCool.5 mph72%30.40 "HgN/A
8:00 am51 °FCool.5 mph75%30.40 "HgN/A
7:00 am52 °FCool.6 mph75%30.39 "HgN/A
6:00 am52 °FCool.6 mph74%30.38 "HgN/A
5:00 am52 °FCool.6 mph76%30.37 "HgN/A
4:00 am53 °FCool.6 mph75%30.38 "HgN/A
3:00 am53 °FCool.5 mph75%30.38 "HgN/A
1:00 am53 °FCool.3 mph77%30.37 "HgN/A
12:00 am54 °FCool.3 mph74%30.37 "HgN/A
11:00 pm
Wed, Dec 7
55 °FCool.5 mph73%30.37 "HgN/A
10:00 pm55 °FCool.3 mph76%30.38 "HgN/A
Weather by CustomWeather, © 2016

See weather overviewHow to use our weather pages